Location: Fensholt
(55.9856°N, 10.0808°E)
Time: 05:41:09
(UTC+00:00)

ERS-2 - Visible Passes

Search period start: 26 September 2020 00:00
Search period end: 06 October 2020 00:00
Orbit: 493 x 498 km, 98.6° (Epoch: 25 September)

Date Brightness Start Highest point End Pass type
(mag) Time Alt. Az. Time Alt. Az. Time Alt. Az.
26 Sep 5.2 01:47:40 10° E 01:49:58 16° NE 01:52:17 10° NNE visible
26 Sep 2.0 03:19:24 10° SSE 03:23:04 79° WSW 03:26:46 10° NNW visible
26 Sep 4.4 17:47:54 10° N 17:51:08 29° WNW 17:54:20 10° WSW visible
27 Sep 5.6 01:28:08 10° ENE 01:29:19 11° NE 01:30:30 10° NNE visible
27 Sep 2.5 02:58:33 10° SSE 03:02:10 64° ENE 03:05:49 10° NNW visible
27 Sep 3.7 04:33:44 10° SW 04:36:07 16° W 04:38:30 10° NW visible
28 Sep 3.5 02:37:53 10° SE 02:41:20 40° ENE 02:44:47 10° N visible
28 Sep 3.1 04:11:55 10° SSW 04:15:01 25° W 04:18:07 10° NW visible
28 Sep 5.4 18:40:48 10° NNW 18:42:23 13° NW 18:44:00 10° WNW visible
29 Sep 4.3 02:17:27 10° ESE 02:20:32 26° ENE 02:23:39 10° N visible
29 Sep 2.5 03:50:31 10° S 03:53:58 40° W 03:57:28 10° NNW visible
29 Sep 5.2 18:19:12 10° NNW 18:21:43 18° NW 18:24:14 10° W visible
30 Sep 5.0 01:57:15 10° E 01:59:48 18° NE 02:02:22 10° NNE visible
30 Sep 2.0 03:29:21 10° S 03:32:59 66° WSW 03:36:40 10° NNW visible
30 Sep 4.6 17:57:54 10° N 18:00:59 26° WNW 18:04:03 10° WSW visible
01 Oct 5.4 01:37:27 10° ENE 01:39:07 13° NE 01:40:48 10° NNE visible
01 Oct 2.2 03:08:24 10° SSE 03:12:04 76° ENE 03:15:44 10° NNW visible
01 Oct 3.8 04:44:06 10° WSW 04:46:06 14° W 04:48:06 10° WNW visible
01 Oct 3.8 17:36:45 10° N 17:40:12 39° WNW 17:43:36 10° SW visible
02 Oct 3.2 02:47:40 10° SE 02:51:11 46° ENE 02:54:44 10° N visible
02 Oct 3.3 04:22:05 10° SW 04:24:58 22° W 04:27:52 10° NW visible
02 Oct 5.6 18:51:07 10° NNW 18:52:12 11° NW 18:53:16 10° WNW visible
03 Oct 4.1 02:27:09 10° SE 02:30:23 30° ENE 02:33:37 10° N visible
03 Oct 2.7 04:00:32 10° SSW 04:03:54 34° W 04:07:16 10° NNW visible
03 Oct 5.2 18:29:16 10° NNW 18:31:31 16° NW 18:33:47 10° W visible
04 Oct 4.8 02:06:51 10° ESE 02:09:37 21° ENE 02:12:23 10° N visible
04 Oct 2.1 03:39:17 10° S 03:42:53 55° WSW 03:46:30 10° NNW visible
04 Oct 4.8 18:07:53 10° N 18:10:48 23° WNW 18:13:42 10° WSW visible
05 Oct 5.3 01:46:52 10° E 01:48:54 14° NE 01:50:56 10° NNE visible
05 Oct 2.0 03:18:16 10° SSE 03:21:56 89° NE 03:25:37 10° NNW visible
05 Oct 4.0 17:46:41 10° N 17:50:01 33° WNW 17:53:20 10° SW visible
